contact:dominique.lefevre@mio.osupytheas.fr, maurice.libes@osupytheas.fr, didier.mallarino@osupytheas.fr
Project:EMSO http://www.emso-fr.org/EMSO-France
Depth: 2436.0 m
Title:EMSO Ligure Ouest : Data MII capteur MICROCAT
DateTime_Computer,Latitude,Longitude,Temperature,Conductivity,Pressure,DateTime_Instrument
DateTime_Computer,Latitude,Longitude,degC,S m-1,dbar,DateTime_Instrument
2023-11-08T00:01:29Z,42.805,6.029,13.3037,4.60119,2470.81,2023-11-08T02:03:56Z
2023-11-08T00:04:32Z,42.805,6.029,13.3038,4.60117,2470.833,2023-11-08T02:06:59Z
2023-11-08T00:07:35Z,42.805,6.029,13.3038,4.60114,2470.824,2023-11-08T02:10:02Z
2023-11-08T00:10:38Z,42.805,6.029,13.3037,4.60119,2470.81,2023-11-08T02:13:05Z
2023-11-08T00:13:41Z,42.805,6.029,13.3037,4.60110,2470.81,2023-11-08T02:16:08Z
2023-11-08T00:16:44Z,42.805,6.029,13.3036,4.60107,2470.787,2023-11-08T02:19:11Z
2023-11-08T00:19:47Z,42.805,6.029,13.3034,4.60115,2470.824,2023-11-08T02:22:14Z
2023-11-08T00:22:51Z,42.805,6.029,13.3037,4.60116,2470.833,2023-11-08T02:25:17Z
2023-11-08T00:25:54Z,42.805,6.029,13.3036,4.60112,2470.81,2023-11-08T02:28:20Z
2023-11-08T00:28:57Z,42.805,6.029,13.3036,4.60112,2470.81,2023-11-08T02:31:23Z
2023-11-08T00:32:00Z,42.805,6.029,13.3037,4.60109,2470.81,2023-11-08T02:34:26Z
2023-11-08T00:35:03Z,42.805,6.029,13.3038,4.60114,2470.824,2023-11-08T02:37:29Z
2023-11-08T00:38:06Z,42.805,6.029,13.3036,4.60117,2470.81,2023-11-08T02:40:32Z
2023-11-08T00:41:09Z,42.805,6.029,13.3037,4.60123,2470.847,2023-11-08T02:43:36Z
2023-11-08T00:44:12Z,42.805,6.029,13.3036,4.60114,2470.824,2023-11-08T02:46:39Z
2023-11-08T00:47:15Z,42.805,6.029,13.3036,4.60110,2470.847,2023-11-08T02:49:42Z
2023-11-08T00:50:18Z,42.805,6.029,13.3036,4.60114,2470.833,2023-11-08T02:52:45Z
2023-11-08T00:53:21Z,42.805,6.029,13.3031,4.60110,2470.824,2023-11-08T02:55:48Z
2023-11-08T00:56:24Z,42.805,6.029,13.3035,4.60108,2470.824,2023-11-08T02:58:51Z
2023-11-08T00:59:27Z,42.805,6.029,13.3039,4.60114,2470.847,2023-11-08T03:01:54Z
2023-11-08T01:02:30Z,42.805,6.029,13.3036,4.60114,2470.833,2023-11-08T03:04:57Z
2023-11-08T01:05:34Z,42.805,6.029,13.3036,4.60110,2470.833,2023-11-08T03:08:00Z
2023-11-08T01:08:37Z,42.805,6.029,13.3038,4.60114,2470.833,2023-11-08T03:11:03Z
2023-11-08T01:11:40Z,42.805,6.029,13.3034,4.60108,2470.81,2023-11-08T03:14:06Z
2023-11-08T01:14:43Z,42.805,6.029,13.3037,4.60116,2470.81,2023-11-08T03:17:09Z
2023-11-08T01:17:46Z,42.805,6.029,13.3034,4.60123,2470.787,2023-11-08T03:20:12Z
2023-11-08T01:20:49Z,42.805,6.029,13.3039,4.60114,2470.824,2023-11-08T03:23:16Z
2023-11-08T01:23:52Z,42.805,6.029,13.3040,4.60112,2470.847,2023-11-08T03:26:19Z
2023-11-08T01:26:55Z,42.805,6.029,13.3036,4.60112,2470.833,2023-11-08T03:29:22Z
2023-11-08T01:29:58Z,42.805,6.029,13.3036,4.60111,2470.847,2023-11-08T03:32:25Z
2023-11-08T01:33:01Z,42.805,6.029,13.3036,4.60109,2470.824,2023-11-08T03:35:28Z
2023-11-08T01:36:04Z,42.805,6.029,13.3037,4.60107,2470.857,2023-11-08T03:38:31Z
2023-11-08T01:39:07Z,42.805,6.029,13.3036,4.60104,2470.847,2023-11-08T03:41:34Z
2023-11-08T01:42:11Z,42.805,6.029,13.3037,4.60104,2470.871,2023-11-08T03:44:37Z
2023-11-08T01:45:14Z,42.805,6.029,13.3035,4.60105,2470.847,2023-11-08T03:47:40Z
2023-11-08T01:48:17Z,42.805,6.029,13.3034,4.60104,2470.833,2023-11-08T03:50:43Z
2023-11-08T01:51:20Z,42.805,6.029,13.3034,4.60103,2470.847,2023-11-08T03:53:46Z
2023-11-08T01:54:23Z,42.805,6.029,13.3035,4.60104,2470.833,2023-11-08T03:56:49Z
2023-11-08T01:57:26Z,42.805,6.029,13.3039,4.60105,2470.824,2023-11-08T03:59:52Z
2023-11-08T02:00:29Z,42.805,6.029,13.3037,4.60105,2470.833,2023-11-08T04:02:56Z
2023-11-08T02:03:32Z,42.805,6.029,13.3040,4.60104,2470.857,2023-11-08T04:05:59Z
2023-11-08T02:06:35Z,42.805,6.029,13.3036,4.60106,2470.871,2023-11-08T04:09:02Z
2023-11-08T02:09:38Z,42.805,6.029,13.3034,4.60105,2470.857,2023-11-08T04:12:05Z
2023-11-08T02:12:41Z,42.805,6.029,13.3034,4.60104,2470.894,2023-11-08T04:15:08Z
2023-11-08T02:15:44Z,42.805,6.029,13.3036,4.60104,2470.894,2023-11-08T04:18:11Z
2023-11-08T02:18:47Z,42.805,6.029,13.3037,4.60104,2470.833,2023-11-08T04:21:14Z
2023-11-08T02:21:50Z,42.805,6.029,13.3036,4.60104,2470.857,2023-11-08T04:24:17Z
2023-11-08T02:24:54Z,42.805,6.029,13.3035,4.60105,2470.857,2023-11-08T04:27:20Z
2023-11-08T02:27:57Z,42.805,6.029,13.3037,4.60104,2470.871,2023-11-08T04:30:23Z
2023-11-08T02:31:00Z,42.805,6.029,13.3036,4.60104,2470.857,2023-11-08T04:33:26Z
2023-11-08T02:34:03Z,42.805,6.029,13.3036,4.60104,2470.88,2023-11-08T04:36:29Z
2023-11-08T02:37:06Z,42.805,6.029,13.3041,4.60105,2470.857,2023-11-08T04:39:32Z
2023-11-08T02:40:09Z,42.805,6.029,13.3036,4.60104,2470.871,2023-11-08T04:42:35Z
2023-11-08T02:43:12Z,42.805,6.029,13.3040,4.60104,2470.894,2023-11-08T04:45:39Z
2023-11-08T02:46:15Z,42.805,6.029,13.3036,4.60105,2470.857,2023-11-08T04:48:42Z
2023-11-08T02:49:18Z,42.805,6.029,13.3039,4.60104,2470.857,2023-11-08T04:51:45Z
2023-11-08T02:52:21Z,42.805,6.029,13.3034,4.60104,2470.871,2023-11-08T04:54:48Z
2023-11-08T02:55:24Z,42.805,6.029,13.3037,4.60104,2470.871,2023-11-08T04:57:51Z
2023-11-08T02:58:27Z,42.805,6.029,13.3034,4.60106,2470.88,2023-11-08T05:00:54Z
2023-11-08T03:01:30Z,42.805,6.029,13.3032,4.60101,2470.88,2023-11-08T05:03:57Z
2023-11-08T03:04:33Z,42.805,6.029,13.3029,4.60107,2470.857,2023-11-08T05:07:00Z
2023-11-08T03:07:37Z,42.805,6.029,13.3030,4.60105,2470.894,2023-11-08T05:10:03Z
2023-11-08T03:10:40Z,42.805,6.029,13.3029,4.60099,2470.894,2023-11-08T05:13:06Z
2023-11-08T03:13:43Z,42.805,6.029,13.3025,4.60099,2470.857,2023-11-08T05:16:09Z
2023-11-08T03:16:46Z,42.805,6.029,13.3031,4.60097,2470.857,2023-11-08T05:19:12Z
2023-11-08T03:19:49Z,42.805,6.029,13.3027,4.60098,2470.88,2023-11-08T05:22:15Z
2023-11-08T03:22:52Z,42.805,6.029,13.3029,4.60097,2470.88,2023-11-08T05:25:19Z
2023-11-08T03:25:55Z,42.805,6.029,13.3028,4.60097,2470.857,2023-11-08T05:28:22Z
2023-11-08T03:28:58Z,42.805,6.029,13.3031,4.60097,2470.88,2023-11-08T05:31:25Z
2023-11-08T03:32:01Z,42.805,6.029,13.3031,4.60097,2470.871,2023-11-08T05:34:28Z
2023-11-08T03:35:04Z,42.805,6.029,13.3027,4.60097,2470.871,2023-11-08T05:37:31Z
2023-11-08T03:38:07Z,42.805,6.029,13.3031,4.60099,2470.88,2023-11-08T05:40:34Z
2023-11-08T03:41:10Z,42.805,6.029,13.3029,4.60099,2470.857,2023-11-08T05:43:37Z
2023-11-08T03:44:14Z,42.805,6.029,13.3031,4.60105,2470.833,2023-11-08T05:46:40Z
2023-11-08T03:47:17Z,42.805,6.029,13.3031,4.60104,2470.871,2023-11-08T05:49:43Z
2023-11-08T03:50:20Z,42.805,6.029,13.3034,4.60098,2470.871,2023-11-08T05:52:46Z
2023-11-08T03:53:23Z,42.805,6.029,13.3030,4.60098,2470.88,2023-11-08T05:55:49Z
2023-11-08T03:56:26Z,42.805,6.029,13.3031,4.60098,2470.871,2023-11-08T05:58:52Z
2023-11-08T03:59:29Z,42.805,6.029,13.3031,4.60099,2470.88,2023-11-08T06:01:55Z
2023-11-08T04:02:32Z,42.805,6.029,13.3029,4.60099,2470.88,2023-11-08T06:04:59Z
2023-11-08T04:05:35Z,42.805,6.029,13.3029,4.60099,2470.871,2023-11-08T06:08:02Z
2023-11-08T04:08:38Z,42.805,6.029,13.3032,4.60099,2470.857,2023-11-08T06:11:05Z
2023-11-08T04:11:41Z,42.805,6.029,13.3030,4.60098,2470.857,2023-11-08T06:14:08Z
2023-11-08T04:14:44Z,42.805,6.029,13.3031,4.60097,2470.833,2023-11-08T06:17:11Z
2023-11-08T04:17:47Z,42.805,6.029,13.3032,4.60099,2470.833,2023-11-08T06:20:14Z
2023-11-08T04:20:50Z,42.805,6.029,13.3031,4.60097,2470.88,2023-11-08T06:23:17Z
2023-11-08T04:23:53Z,42.805,6.029,13.3031,4.60102,2470.88,2023-11-08T06:26:20Z
2023-11-08T04:26:57Z,42.805,6.029,13.3026,4.60099,2470.857,2023-11-08T06:29:23Z
2023-11-08T04:30:00Z,42.805,6.029,13.3031,4.60104,2470.88,2023-11-08T06:32:26Z
2023-11-08T04:33:03Z,42.805,6.029,13.3030,4.60098,2470.857,2023-11-08T06:35:29Z
2023-11-08T04:36:06Z,42.805,6.029,13.3029,4.60098,2470.866,2023-11-08T06:38:32Z
2023-11-08T04:39:09Z,42.805,6.029,13.3029,4.60098,2470.81,2023-11-08T06:41:35Z
2023-11-08T04:42:12Z,42.805,6.029,13.3027,4.60098,2470.857,2023-11-08T06:44:38Z
2023-11-08T04:45:15Z,42.805,6.029,13.3028,4.60099,2470.894,2023-11-08T06:47:42Z
2023-11-08T04:48:18Z,42.805,6.029,13.3031,4.60099,2470.857,2023-11-08T06:50:45Z
2023-11-08T04:51:21Z,42.805,6.029,13.3029,4.60099,2470.833,2023-11-08T06:53:48Z
2023-11-08T04:54:24Z,42.805,6.029,13.3031,4.60097,2470.857,2023-11-08T06:56:51Z
2023-11-08T04:57:27Z,42.805,6.029,13.3024,4.60098,2470.847,2023-11-08T06:59:54Z
2023-11-08T05:00:30Z,42.805,6.029,13.3031,4.60097,2470.88,2023-11-08T07:02:57Z
2023-11-08T05:03:33Z,42.805,6.029,13.3028,4.60098,2470.857,2023-11-08T07:06:00Z
2023-11-08T05:06:37Z,42.805,6.029,13.3033,4.60098,2470.847,2023-11-08T07:09:03Z
2023-11-08T05:09:40Z,42.805,6.029,13.3030,4.60099,2470.847,2023-11-08T07:12:06Z
2023-11-08T05:12:43Z,42.805,6.029,13.3025,4.60097,2470.857,2023-11-08T07:15:09Z
2023-11-08T05:15:46Z,42.805,6.029,13.3028,4.60098,2470.871,2023-11-08T07:18:12Z
2023-11-08T05:18:49Z,42.805,6.029,13.3031,4.60098,2470.833,2023-11-08T07:21:15Z
2023-11-08T05:21:52Z,42.805,6.029,13.3031,4.60097,2470.871,2023-11-08T07:24:18Z
2023-11-08T05:24:55Z,42.805,6.029,13.3026,4.60100,2470.857,2023-11-08T07:27:22Z
2023-11-08T05:27:58Z,42.805,6.029,13.3026,4.60099,2470.88,2023-11-08T07:30:25Z
2023-11-08T05:31:01Z,42.805,6.029,13.3029,4.60098,2470.857,2023-11-08T07:33:28Z
2023-11-08T05:34:04Z,42.805,6.029,13.3031,4.60102,2470.847,2023-11-08T07:36:31Z
2023-11-08T05:37:07Z,42.805,6.029,13.3026,4.60099,2470.847,2023-11-08T07:39:34Z
2023-11-08T05:40:10Z,42.805,6.029,13.3028,4.60099,2470.894,2023-11-08T07:42:37Z
2023-11-08T05:43:13Z,42.805,6.029,13.3031,4.60099,2470.88,2023-11-08T07:45:40Z
2023-11-08T05:46:17Z,42.805,6.029,13.3029,4.60098,2470.871,2023-11-08T07:48:43Z
2023-11-08T05:49:20Z,42.805,6.029,13.3029,4.60099,2470.857,2023-11-08T07:51:46Z
2023-11-08T05:52:23Z,42.805,6.029,13.3031,4.60099,2470.833,2023-11-08T07:54:49Z
2023-11-08T05:55:26Z,42.805,6.029,13.3028,4.60097,2470.833,2023-11-08T07:57:52Z
2023-11-08T05:58:29Z,42.805,6.029,13.3029,4.60098,2470.857,2023-11-08T08:00:55Z
2023-11-08T06:01:32Z,42.805,6.029,13.3029,4.60098,2470.847,2023-11-08T08:03:58Z
2023-11-08T06:04:35Z,42.805,6.029,13.3031,4.60099,2470.81,2023-11-08T08:07:02Z
2023-11-08T06:07:38Z,42.805,6.029,13.3034,4.60098,2470.82,2023-11-08T08:10:05Z
2023-11-08T06:10:41Z,42.805,6.029,13.3031,4.60099,2470.871,2023-11-08T08:13:08Z
2023-11-08T06:13:44Z,42.805,6.029,13.3027,4.60098,2470.833,2023-11-08T08:16:11Z
2023-11-08T06:16:47Z,42.805,6.029,13.3029,4.60102,2470.871,2023-11-08T08:19:14Z
2023-11-08T06:19:50Z,42.805,6.029,13.3029,4.60106,2470.833,2023-11-08T08:22:17Z
2023-11-08T06:22:53Z,42.805,6.029,13.3029,4.60099,2470.857,2023-11-08T08:25:20Z
2023-11-08T06:25:57Z,42.805,6.029,13.3030,4.60098,2470.857,2023-11-08T08:28:23Z
2023-11-08T06:29:00Z,42.805,6.029,13.3028,4.60099,2470.857,2023-11-08T08:31:26Z
2023-11-08T06:32:03Z,42.805,6.029,13.3031,4.60099,2470.857,2023-11-08T08:34:29Z
2023-11-08T06:35:06Z,42.805,6.029,13.3033,4.60101,2470.857,2023-11-08T08:37:32Z
2023-11-08T06:38:09Z,42.805,6.029,13.3031,4.60099,2470.857,2023-11-08T08:40:35Z
2023-11-08T06:41:12Z,42.805,6.029,13.3029,4.60100,2470.857,2023-11-08T08:43:38Z
2023-11-08T06:44:15Z,42.805,6.029,13.3031,4.60099,2470.833,2023-11-08T08:46:42Z
2023-11-08T06:47:18Z,42.805,6.029,13.3031,4.60104,2470.833,2023-11-08T08:49:45Z
2023-11-08T06:50:21Z,42.805,6.029,13.3029,4.60099,2470.857,2023-11-08T08:52:48Z
2023-11-08T06:53:24Z,42.805,6.029,13.3030,4.60105,2470.871,2023-11-08T08:55:51Z
2023-11-08T06:56:27Z,42.805,6.029,13.3025,4.60102,2470.857,2023-11-08T08:58:54Z
2023-11-08T06:59:30Z,42.805,6.029,13.3029,4.60104,2470.857,2023-11-08T09:01:57Z
2023-11-08T07:02:33Z,42.805,6.029,13.3030,4.60100,2470.871,2023-11-08T09:05:00Z
2023-11-08T07:05:37Z,42.805,6.029,13.3034,4.60099,2470.847,2023-11-08T09:08:03Z
2023-11-08T07:08:40Z,42.805,6.029,13.3031,4.60099,2470.871,2023-11-08T09:11:06Z
2023-11-08T07:11:43Z,42.805,6.029,13.3028,4.60105,2470.857,2023-11-08T09:14:09Z
2023-11-08T07:14:46Z,42.805,6.029,13.3029,4.60099,2470.833,2023-11-08T09:17:12Z
2023-11-08T07:17:49Z,42.805,6.029,13.3029,4.60099,2470.857,2023-11-08T09:20:15Z
2023-11-08T07:20:52Z,42.805,6.029,13.3031,4.60099,2470.871,2023-11-08T09:23:18Z
2023-11-08T07:23:55Z,42.805,6.029,13.3031,4.60105,2470.833,2023-11-08T09:26:22Z
2023-11-08T07:26:58Z,42.805,6.029,13.3031,4.60101,2470.833,2023-11-08T09:29:25Z
2023-11-08T07:30:01Z,42.805,6.029,13.3029,4.60099,2470.824,2023-11-08T09:32:28Z
2023-11-08T07:33:04Z,42.805,6.029,13.3029,4.60099,2470.833,2023-11-08T09:35:31Z
2023-11-08T07:36:07Z,42.805,6.029,13.3029,4.60099,2470.857,2023-11-08T09:38:34Z
2023-11-08T07:39:10Z,42.805,6.029,13.3026,4.60098,2470.833,2023-11-08T09:41:37Z
2023-11-08T07:42:13Z,42.805,6.029,13.3028,4.60099,2470.847,2023-11-08T09:44:40Z
2023-11-08T07:45:17Z,42.805,6.029,13.3029,4.60099,2470.847,2023-11-08T09:47:43Z
2023-11-08T07:48:20Z,42.805,6.029,13.3029,4.60098,2470.833,2023-11-08T09:50:46Z
2023-11-08T07:51:23Z,42.805,6.029,13.3027,4.60098,2470.833,2023-11-08T09:53:49Z
2023-11-08T07:54:26Z,42.805,6.029,13.3036,4.60101,2470.81,2023-11-08T09:56:52Z
2023-11-08T07:57:29Z,42.805,6.029,13.3030,4.60099,2470.847,2023-11-08T09:59:55Z
2023-11-08T08:00:32Z,42.805,6.029,13.3031,4.60099,2470.81,2023-11-08T10:02:58Z
2023-11-08T08:03:35Z,42.805,6.029,13.3031,4.60099,2470.847,2023-11-08T10:06:02Z
2023-11-08T08:06:38Z,42.805,6.029,13.3029,4.60101,2470.81,2023-11-08T10:09:05Z
2023-11-08T08:09:41Z,42.805,6.029,13.3028,4.60100,2470.81,2023-11-08T10:12:08Z
2023-11-08T08:12:44Z,42.805,6.029,13.3032,4.60104,2470.824,2023-11-08T10:15:11Z
2023-11-08T08:15:47Z,42.805,6.029,13.3032,4.60098,2470.824,2023-11-08T10:18:14Z
2023-11-08T08:18:50Z,42.805,6.029,13.3030,4.60099,2470.824,2023-11-08T10:21:17Z
2023-11-08T08:21:53Z,42.805,6.029,13.3032,4.60099,2470.833,2023-11-08T10:24:20Z
2023-11-08T08:24:57Z,42.805,6.029,13.3029,4.60099,2470.81,2023-11-08T10:27:23Z
2023-11-08T08:28:00Z,42.805,6.029,13.3031,4.60098,2470.787,2023-11-08T10:30:26Z
2023-11-08T08:31:03Z,42.805,6.029,13.3031,4.60099,2470.796,2023-11-08T10:33:29Z
2023-11-08T08:34:06Z,42.805,6.029,13.3029,4.60099,2470.847,2023-11-08T10:36:32Z
2023-11-08T08:37:09Z,42.805,6.029,13.3029,4.60101,2470.824,2023-11-08T10:39:35Z
2023-11-08T08:40:12Z,42.805,6.029,13.3030,4.60097,2470.8,2023-11-08T10:42:39Z
2023-11-08T08:43:15Z,42.805,6.029,13.3028,4.60099,2470.824,2023-11-08T10:45:42Z
2023-11-08T08:46:18Z,42.805,6.029,13.3034,4.60098,2470.787,2023-11-08T10:48:45Z
2023-11-08T08:49:21Z,42.805,6.029,13.3031,4.60099,2470.8,2023-11-08T10:51:48Z
2023-11-08T08:52:24Z,42.805,6.029,13.3031,4.60099,2470.833,2023-11-08T10:54:51Z
2023-11-08T08:55:27Z,42.805,6.029,13.3029,4.60098,2470.81,2023-11-08T10:57:54Z
2023-11-08T08:58:30Z,42.805,6.029,13.3029,4.60102,2470.833,2023-11-08T11:00:57Z
2023-11-08T09:01:34Z,42.805,6.029,13.3031,4.60099,2470.81,2023-11-08T11:04:00Z
2023-11-08T09:04:37Z,42.805,6.029,13.3029,4.60102,2470.833,2023-11-08T11:07:03Z
2023-11-08T09:07:40Z,42.805,6.029,13.3031,4.60099,2470.787,2023-11-08T11:10:06Z
2023-11-08T09:10:43Z,42.805,6.029,13.3028,4.60099,2470.833,2023-11-08T11:13:09Z
2023-11-08T09:13:46Z,42.805,6.029,13.3030,4.60098,2470.81,2023-11-08T11:16:12Z
2023-11-08T09:16:49Z,42.805,6.029,13.3031,4.60099,2470.824,2023-11-08T11:19:15Z
2023-11-08T09:19:52Z,42.805,6.029,13.3034,4.60099,2470.787,2023-11-08T11:22:19Z
2023-11-08T09:22:55Z,42.805,6.029,13.3026,4.60099,2470.787,2023-11-08T11:25:22Z
2023-11-08T09:25:58Z,42.805,6.029,13.3036,4.60099,2470.824,2023-11-08T11:28:25Z
2023-11-08T09:29:01Z,42.805,6.029,13.3030,4.60099,2470.787,2023-11-08T11:31:28Z
2023-11-08T09:32:04Z,42.805,6.029,13.3032,4.60099,2470.787,2023-11-08T11:34:30Z
2023-11-08T09:35:07Z,42.805,6.029,13.3031,4.60099,2470.81,2023-11-08T11:37:33Z
2023-11-08T09:38:10Z,42.805,6.029,13.3029,4.60102,2470.787,2023-11-08T11:40:36Z
2023-11-08T09:41:13Z,42.805,6.029,13.3032,4.60098,2470.81,2023-11-08T11:43:40Z
2023-11-08T09:44:16Z,42.805,6.029,13.3035,4.60099,2470.787,2023-11-08T11:46:43Z
2023-11-08T09:47:19Z,42.805,6.029,13.3031,4.60099,2470.773,2023-11-08T11:49:46Z
2023-11-08T09:50:22Z,42.805,6.029,13.3029,4.60101,2470.824,2023-11-08T11:52:49Z
2023-11-08T09:53:25Z,42.805,6.029,13.3034,4.60101,2470.787,2023-11-08T11:55:52Z
2023-11-08T09:56:28Z,42.805,6.029,13.3031,4.60101,2470.787,2023-11-08T11:58:55Z
2023-11-08T09:59:31Z,42.805,6.029,13.3029,4.60099,2470.824,2023-11-08T12:01:58Z
2023-11-08T10:02:35Z,42.805,6.029,13.3029,4.60099,2470.824,2023-11-08T12:05:01Z
2023-11-08T10:05:38Z,42.805,6.029,13.3029,4.60099,2470.833,2023-11-08T12:08:04Z
2023-11-08T10:08:41Z,42.805,6.029,13.3029,4.60101,2470.81,2023-11-08T12:11:07Z
2023-11-08T10:11:44Z,42.805,6.029,13.3029,4.60102,2470.81,2023-11-08T12:14:10Z
2023-11-08T10:14:47Z,42.805,6.029,13.3031,4.60099,2470.787,2023-11-08T12:17:13Z
2023-11-08T10:17:50Z,42.805,6.029,13.3031,4.60098,2470.787,2023-11-08T12:20:17Z
2023-11-08T10:20:53Z,42.805,6.029,13.3033,4.60098,2470.773,2023-11-08T12:23:20Z
2023-11-08T10:23:56Z,42.805,6.029,13.3031,4.60099,2470.81,2023-11-08T12:26:23Z
2023-11-08T10:26:59Z,42.805,6.029,13.3036,4.60098,2470.8,2023-11-08T12:29:26Z
2023-11-08T10:30:02Z,42.805,6.029,13.3027,4.60098,2470.81,2023-11-08T12:32:29Z
2023-11-08T10:33:05Z,42.805,6.029,13.3026,4.60099,2470.8,2023-11-08T12:35:32Z
2023-11-08T10:36:08Z,42.805,6.029,13.3025,4.60098,2470.787,2023-11-08T12:38:35Z
2023-11-08T10:39:12Z,42.805,6.029,13.3026,4.60099,2470.787,2023-11-08T12:41:38Z
2023-11-08T10:42:15Z,42.805,6.029,13.3029,4.60099,2470.81,2023-11-08T12:44:41Z
2023-11-08T10:45:18Z,42.805,6.029,13.3029,4.60099,2470.787,2023-11-08T12:47:44Z
2023-11-08T10:48:21Z,42.805,6.029,13.3029,4.60104,2470.847,2023-11-08T12:50:47Z
2023-11-08T10:51:24Z,42.805,6.029,13.3027,4.60099,2470.81,2023-11-08T12:53:50Z
2023-11-08T10:54:27Z,42.805,6.029,13.3032,4.60097,2470.763,2023-11-08T12:56:53Z
2023-11-08T10:57:30Z,42.805,6.029,13.3023,4.60099,2470.787,2023-11-08T12:59:57Z
2023-11-08T11:00:33Z,42.805,6.029,13.3030,4.60099,2470.824,2023-11-08T13:03:00Z
2023-11-08T11:03:36Z,42.805,6.029,13.3031,4.60099,2470.81,2023-11-08T13:06:03Z
2023-11-08T11:06:39Z,42.805,6.029,13.3031,4.60102,2470.81,2023-11-08T13:09:06Z
2023-11-08T11:09:42Z,42.805,6.029,13.3028,4.60101,2470.787,2023-11-08T13:12:09Z
2023-11-08T11:12:45Z,42.805,6.029,13.3033,4.60101,2470.8,2023-11-08T13:15:12Z
2023-11-08T11:15:48Z,42.805,6.029,13.3029,4.60099,2470.787,2023-11-08T13:18:15Z
2023-11-08T11:18:52Z,42.805,6.029,13.3029,4.60101,2470.81,2023-11-08T13:21:18Z
2023-11-08T11:21:55Z,42.805,6.029,13.3028,4.60101,2470.787,2023-11-08T13:24:21Z
2023-11-08T11:24:58Z,42.805,6.029,13.3031,4.60104,2470.833,2023-11-08T13:27:24Z
2023-11-08T11:28:01Z,42.805,6.029,13.3030,4.60099,2470.787,2023-11-08T13:30:27Z
2023-11-08T11:31:03Z,42.805,6.029,13.3028,4.60099,2470.787,2023-11-08T13:33:29Z
2023-11-08T11:34:06Z,42.805,6.029,13.3027,4.60099,2470.81,2023-11-08T13:36:33Z
2023-11-08T11:37:09Z,42.805,6.029,13.3031,4.60101,2470.847,2023-11-08T13:39:36Z
2023-11-08T11:40:12Z,42.805,6.029,13.3034,4.60101,2470.787,2023-11-08T13:42:39Z
2023-11-08T11:43:15Z,42.805,6.029,13.3031,4.60102,2470.787,2023-11-08T13:45:42Z
2023-11-08T11:46:18Z,42.805,6.029,13.3031,4.60099,2470.81,2023-11-08T13:48:45Z
2023-11-08T11:49:21Z,42.805,6.029,13.3033,4.60099,2470.8,2023-11-08T13:51:48Z
2023-11-08T11:52:24Z,42.805,6.029,13.3029,4.60099,2470.787,2023-11-08T13:54:51Z
2023-11-08T11:55:28Z,42.805,6.029,13.3033,4.60099,2470.787,2023-11-08T13:57:54Z
2023-11-08T11:58:31Z,42.805,6.029,13.3029,4.60099,2470.824,2023-11-08T14:00:57Z
2023-11-08T12:01:34Z,42.805,6.029,13.3029,4.60099,2470.843,2023-11-08T14:04:00Z
2023-11-08T12:04:37Z,42.805,6.029,13.3031,4.60099,2470.833,2023-11-08T14:07:03Z
2023-11-08T12:07:40Z,42.805,6.029,13.3029,4.60100,2470.787,2023-11-08T14:10:06Z
2023-11-08T12:10:43Z,42.805,6.029,13.3029,4.60101,2470.824,2023-11-08T14:13:10Z
2023-11-08T12:13:46Z,42.805,6.029,13.3031,4.60099,2470.82,2023-11-08T14:16:13Z
2023-11-08T12:16:49Z,42.805,6.029,13.3031,4.60099,2470.833,2023-11-08T14:19:16Z
2023-11-08T12:19:52Z,42.805,6.029,13.3032,4.60099,2470.824,2023-11-08T14:22:19Z
2023-11-08T12:22:55Z,42.805,6.029,13.3029,4.60099,2470.824,2023-11-08T14:25:22Z
2023-11-08T12:25:58Z,42.805,6.029,13.3031,4.60099,2470.787,2023-11-08T14:28:25Z
2023-11-08T12:29:01Z,42.805,6.029,13.3031,4.60099,2470.847,2023-11-08T14:31:28Z
2023-11-08T12:32:04Z,42.805,6.029,13.3027,4.60100,2470.833,2023-11-08T14:34:31Z
2023-11-08T12:35:08Z,42.805,6.029,13.3029,4.60101,2470.833,2023-11-08T14:37:34Z
2023-11-08T12:38:11Z,42.805,6.029,13.3028,4.60099,2470.81,2023-11-08T14:40:37Z
2023-11-08T12:41:14Z,42.805,6.029,13.3028,4.60101,2470.847,2023-11-08T14:43:40Z
2023-11-08T12:44:17Z,42.805,6.029,13.3029,4.60099,2470.833,2023-11-08T14:46:43Z
2023-11-08T12:47:20Z,42.805,6.029,13.3031,4.60099,2470.847,2023-11-08T14:49:46Z
2023-11-08T12:50:23Z,42.805,6.029,13.3030,4.60102,2470.833,2023-11-08T14:52:50Z
2023-11-08T12:53:26Z,42.805,6.029,13.3028,4.60104,2470.847,2023-11-08T14:55:53Z
2023-11-08T12:56:29Z,42.805,6.029,13.3031,4.60099,2470.857,2023-11-08T14:58:56Z
2023-11-08T12:59:32Z,42.805,6.029,13.3032,4.60099,2470.857,2023-11-08T15:01:59Z
2023-11-08T13:02:35Z,42.805,6.029,13.3036,4.60102,2470.847,2023-11-08T15:05:02Z
2023-11-08T13:05:38Z,42.805,6.029,13.3029,4.60102,2470.857,2023-11-08T15:08:05Z
2023-11-08T13:08:41Z,42.805,6.029,13.3033,4.60102,2470.847,2023-11-08T15:11:08Z
2023-11-08T13:11:45Z,42.805,6.029,13.3033,4.60101,2470.833,2023-11-08T15:14:11Z
2023-11-08T13:14:48Z,42.805,6.029,13.3031,4.60102,2470.857,2023-11-08T15:17:14Z
2023-11-08T13:17:51Z,42.805,6.029,13.3033,4.60099,2470.81,2023-11-08T15:20:17Z
2023-11-08T13:20:54Z,42.805,6.029,13.3031,4.60100,2470.857,2023-11-08T15:23:20Z
2023-11-08T13:23:57Z,42.805,6.029,13.3029,4.60100,2470.88,2023-11-08T15:26:23Z
2023-11-08T13:27:00Z,42.805,6.029,13.3027,4.60099,2470.847,2023-11-08T15:29:27Z
2023-11-08T13:30:03Z,42.805,6.029,13.3028,4.60100,2470.847,2023-11-08T15:32:30Z
2023-11-08T13:33:06Z,42.805,6.029,13.3032,4.60101,2470.833,2023-11-08T15:35:33Z
2023-11-08T13:36:09Z,42.805,6.029,13.3030,4.60101,2470.857,2023-11-08T15:38:36Z
2023-11-08T13:39:12Z,42.805,6.029,13.3029,4.60104,2470.871,2023-11-08T15:41:39Z
2023-11-08T13:42:16Z,42.805,6.029,13.3033,4.60098,2470.871,2023-11-08T15:44:42Z
2023-11-08T13:45:19Z,42.805,6.029,13.3030,4.60099,2470.88,2023-11-08T15:47:45Z
2023-11-08T13:48:22Z,42.805,6.029,13.3031,4.60098,2470.88,2023-11-08T15:50:48Z
2023-11-08T13:51:25Z,42.805,6.029,13.3033,4.60097,2470.88,2023-11-08T15:53:51Z
2023-11-08T13:54:28Z,42.805,6.029,13.3031,4.60098,2470.894,2023-11-08T15:56:54Z
2023-11-08T13:57:31Z,42.805,6.029,13.3036,4.60099,2470.857,2023-11-08T15:59:58Z
2023-11-08T14:00:34Z,42.805,6.029,13.3032,4.60099,2470.88,2023-11-08T16:03:01Z
2023-11-08T14:03:37Z,42.805,6.029,13.3029,4.60098,2470.871,2023-11-08T16:06:04Z
2023-11-08T14:06:40Z,42.805,6.029,13.3028,4.60097,2470.88,2023-11-08T16:09:07Z
2023-11-08T14:09:43Z,42.805,6.029,13.3029,4.60099,2470.88,2023-11-08T16:12:10Z
2023-11-08T14:12:46Z,42.805,6.029,13.3029,4.60099,2470.88,2023-11-08T16:15:13Z
2023-11-08T14:15:49Z,42.805,6.029,13.3030,4.60098,2470.866,2023-11-08T16:18:16Z
2023-11-08T14:18:52Z,42.805,6.029,13.3029,4.60098,2470.894,2023-11-08T16:21:19Z
2023-11-08T14:21:56Z,42.805,6.029,13.3024,4.60099,2470.88,2023-11-08T16:24:22Z
2023-11-08T14:24:59Z,42.805,6.029,13.3033,4.60099,2470.88,2023-11-08T16:27:25Z
2023-11-08T14:28:02Z,42.805,6.029,13.3029,4.60099,2470.89,2023-11-08T16:30:28Z
2023-11-08T14:31:05Z,42.805,6.029,13.3030,4.60097,2470.917,2023-11-08T16:33:31Z
2023-11-08T14:34:08Z,42.805,6.029,13.3032,4.60099,2470.894,2023-11-08T16:36:35Z
2023-11-08T14:37:11Z,42.805,6.029,13.3028,4.60097,2470.88,2023-11-08T16:39:38Z
2023-11-08T14:40:14Z,42.805,6.029,13.3029,4.60096,2470.927,2023-11-08T16:42:41Z
2023-11-08T14:43:17Z,42.805,6.029,13.3034,4.60096,2470.88,2023-11-08T16:45:44Z
2023-11-08T14:46:20Z,42.805,6.029,13.3029,4.60097,2470.894,2023-11-08T16:48:47Z
2023-11-08T14:49:23Z,42.805,6.029,13.3036,4.60097,2470.904,2023-11-08T16:51:50Z
2023-11-08T14:52:26Z,42.805,6.029,13.3032,4.60097,2470.904,2023-11-08T16:54:53Z
2023-11-08T14:55:29Z,42.805,6.029,13.3031,4.60099,2470.88,2023-11-08T16:57:56Z
2023-11-08T14:58:33Z,42.805,6.029,13.3033,4.60102,2470.904,2023-11-08T17:00:59Z
2023-11-08T15:01:36Z,42.805,6.029,13.3031,4.60097,2470.904,2023-11-08T17:04:02Z